Wind_Speed
11 11 10 9 9 10 10 9 9 9 9 9 10 10 10 10 11 11 10 10 11 10 9 9 10 10 10 10 10 10 10 10 10 10 11 11 11 11 11 11 12 12 12 12
13 12 10 10 11 11 11 11 11 11 10 10 11 12 12 12 11 11 12 12 12 11 10 10 10 10 11 11 11 10 10 10 10 10 11 11 11 12 12 12 12 12 12 12
13 11 12 12 12 12 12 12 12 12 11 11 12 12 13 12 13 13 13 12 13 12 12 11 11 12 12 11 11 11 11 11 11 11 11 12 12 12 12 12 12 12 12 13
14 14 13 14 13 13 13 13 13 13 13 12 12 12 12 13 13 13 13 13 14 13 13 13 13 13 13 13 13 13 12 12 12 12 12 13 13 13 13 13 13 13 13 14
15 15 15 15 14 14 14 13 13 14 13 13 12 13 13 13 14 13 13 14 14 15 15 15 14 14 14 14 14 14 14 14 14 13 13 13 13 13 14 14 14 14 14 14
14 15 15 15 15 15 15 14 14 14 13 12 12 14 15 14 15 15 14 14 15 15 16 16 15 15 15 15 15 15 15 15 15 15 15 14 14 14 14 14 14 14 14 14
15 15 15 15 16 16 15 15 15 14 14 13 13 16 16 15 16 16 15 15 16 16 17 17 17 16 16 16 16 16 16 16 16 16 16 16 16 15 15 15 15 15 15 15
16 16 15 15 16 16 16 16 16 15 14 14 15 17 16 16 16 16 16 17 17 17 18 17 17 17 17 17 17 17 17 17 17 17 17 17 17 17 16 16 16 16 16 16
16 16 15 16 16 16 16 16 16 16 15 15 15 18 19 17 17 17 17 17 18 18 18 18 17 18 18 18 18 18 18 18 18 18 18 19 19 18 17 17 17 17 17 17
17 18 16 17 17 17 17 16 16 16 15 16 16 19 21 19 18 18 18 18 19 19 19 19 19 19 19 19 19 19 19 19 20 20 19 19 20 20 20 19 19 19 19 19
17 18 18 18 17 17 17 16 17 17 16 16 17 19 20 20 20 20 19 19 19 20 20 20 20 20 20 20 20 20 20 20 20 21 20 20 20 21 20 20 20 21 20 20
18 18 18 18 18 18 18 18 18 18 17 17 18 20 21 21 21 21 20 20 20 20 21 21 20 21 20 21 21 21 21 21 21 22 21 21 21 21 21 21 22 22 22 22
19 19 18 18 18 18 19 19 19 19 18 18 18 20 21 21 21 21 21 21 20 20 21 21 21 20 20 21 21 21 21 21 22 22 22 22 22 22 22 23 23 23 23 22
19 19 19 19 18 19 19 19 19 19 19 19 18 19 21 22 21 21 21 21 20 20 21 21 21 20 20 21 21 21 21 21 22 23 23 23 23 23 23 23 24 23 23 23
19 19 20 19 19 19 19 20 20 20 20 20 20 21 21 22 21 21 22 21 21 20 21 21 21 21 21 21 21 22 22 22 22 23 23 23 23 23 24 24 24 24 24 24
18 19 20 20 19 19 20 20 21 21 20 21 21 22 22 22 22 22 22 21 21 21 21 22 21 21 21 21 21 22 22 22 22 22 23 23 23 23 23 24 24 24 24 24
19 19 20 21 20 20 20 21 21 22 22 21 21 22 22 22 22 22 22 21 21 21 21 22 22 22 21 21 21 22 22 22 22 22 23 24 24 24 24 24 23 24 24 24
20 20 21 22 21 21 21 21 21 22 22 21 21 22 23 24 23 22 21 21 21 21 21 21 21 21 21 21 22 22 22 23 23 23 24 24 24 24 25 24 24 24 25 25
21 21 21 22 22 22 21 21 22 22 22 22 22 22 23 24 23 22 22 22 22 22 22 21 21 22 22 22 23 23 23 23 23 23 23 24 25 25 25 24 24 24 25 26
21 22 22 22 23 23 22 21 22 23 24 22 23 23 23 24 24 23 23 23 23 23 23 22 22 23 23 23 23 23 24 24 24 24 24 24 25 25 26 26 26 26 26 27
21 22 23 23 23 24 23 23 23 24 24 24 24 24 24 25 25 25 24 24 24 24 23 23 23 23 23 24 24 24 24 24 24 25 25 25 25 26 26 27 27 28 28 28
22 23 23 24 24 25 24 25 24 24 24 24 24 25 26 26 26 25 25 25 24 25 25 24 24 23 24 24 25 25 25 25 25 25 25 25 25 26 27 28 28 28 28 27
23 23 24 25 25 25 25 25 25 25 24 24 24 25 26 26 26 26 26 26 25 25 25 25 25 25 25 26 26 26 26 26 26 26 26 25 26 27 28 28 29 29 29 29
23 24 25 25 25 26 27 26 26 26 26 26 26 26 26 27 27 27 27 27 27 26 26 25 25 26 26 27 27 27 27 27 27 27 27 27 28 28 28 29 29 29 29 30
23 23 25 26 26 26 27 27 27 27 27 28 28 28 28 28 27 27 28 28 28 28 28 27 27 27 27 28 28 28 28 29 29 29 29 29 29 29 29 29 29 30 30 30
24 24 25 26 27 27 27 27 28 28 28 29 29 29 29 30 29 29 29 29 29 29 29 30 30 30 30 30 30 30 30 30 30 30 30 31 31 31 30 30 30 30 31 31
Wind_Direction
230 230 230 235 238 238 241 250 256 258 260 260 263 267 264 266 273 275 277 281 281 279 278 277 279 282 284 287 289 288 287 287 285 283 282 281 280 280 280 281 281 280 279 277
232 232 234 235 239 239 240 247 251 258 262 261 262 267 268 272 278 279 280 280 280 278 277 277 280 280 281 284 286 287 286 285 284 284 282 282 280 279 282 283 284 280 276 276
235 234 235 235 239 241 242 246 250 255 260 261 265 268 273 274 277 277 281 280 278 276 276 278 278 278 279 280 283 283 283 281 280 283 282 282 280 277 281 282 284 282 280 279
234 234 236 238 240 243 244 246 251 255 258 261 265 268 275 280 277 277 278 279 279 278 277 276 276 277 278 279 280 281 281 278 277 278 279 279 278 278 279 282 286 285 282 280
237 236 238 240 244 247 248 249 251 256 259 260 263 269 274 278 279 277 276 277 278 279 279 276 275 274 275 276 277 278 278 277 276 275 277 278 277 277 278 282 284 285 284 282
240 242 242 243 244 245 247 249 252 255 258 261 261 264 271 274 278 279 274 277 278 279 279 276 274 273 273 274 276 276 275 275 273 272 273 274 275 276 277 281 282 283 286 287
243 245 244 243 244 244 244 246 250 253 258 262 263 265 270 274 277 279 277 277 278 278 279 278 275 273 272 273 274 274 273 272 271 271 271 271 272 274 276 278 280 282 284 286
248 250 247 246 246 248 247 248 249 251 254 259 263 268 272 273 275 277 277 277 277 277 277 278 276 275 275 275 275 275 272 271 271 270 270 270 271 271 274 277 277 278 281 283
247 251 251 249 248 248 247 246 251 254 258 262 263 270 273 273 273 274 276 277 276 277 278 280 278 277 277 276 275 274 273 272 270 270 270 268 269 270 271 274 275 276 278 282
247 250 248 250 249 248 249 248 248 249 254 259 259 267 275 277 277 277 277 277 277 278 279 279 278 277 276 275 275 275 274 272 270 269 269 269 268 268 269 270 272 274 277 279
243 248 253 252 250 248 246 247 250 251 254 257 261 266 273 278 282 282 280 279 279 280 280 280 278 277 276 274 274 274 274 273 271 270 269 270 269 267 267 268 270 273 275 277
243 245 250 254 254 253 249 250 252 250 252 255 262 269 274 278 281 281 280 281 282 281 280 280 278 278 277 276 276 274 274 273 273 272 271 271 271 270 268 268 269 271 274 276
243 244 248 250 252 253 251 250 251 253 255 257 261 270 274 275 280 283 282 282 282 281 280 279 279 278 278 277 277 275 275 273 273 272 273 273 272 271 271 270 269 270 271 275
243 243 245 247 249 253 254 254 254 252 255 259 261 266 273 274 275 279 281 282 284 283 279 278 278 278 277 276 276 277 276 275 274 273 273 273 273 272 271 271 269 268 270 274
245 243 243 248 249 250 255 258 256 255 259 262 264 264 268 271 274 276 279 281 282 281 279 278 278 278 277 276 276 277 277 276 277 275 273 273 274 273 271 270 270 269 269 273
248 246 246 249 250 250 255 256 258 259 259 261 264 265 268 270 272 274 277 279 280 280 279 279 278 277 276 277 277 277 278 279 279 277 275 274 274 274 273 271 270 269 269 273
252 251 250 252 252 253 256 257 259 260 258 259 262 264 265 267 270 272 275 277 279 280 279 278 279 278 277 277 278 279 280 280 279 278 277 275 274 274 273 272 272 271 271 273
250 251 252 255 257 259 259 258 260 261 261 260 262 264 265 266 268 271 275 277 279 279 280 280 279 279 278 278 279 280 281 281 281 281 279 277 274 276 274 273 272 271 270 272
252 252 253 256 258 262 262 259 260 262 262 262 264 265 267 266 267 269 272 276 277 277 279 279 280 280 280 280 280 281 281 281 282 281 279 277 275 274 273 274 273 272 271 272
253 250 254 256 258 261 263 261 261 263 264 264 265 266 268 269 268 268 271 274 275 277 278 279 280 281 282 282 283 283 282 282 284 283 281 280 277 274 274 274 274 274 271 271
253 253 254 256 258 261 263 262 263 264 266 266 267 267 269 271 271 271 272 274 274 276 278 278 279 281 282 283 284 283 284 284 285 284 282 281 277 275 275 274 274 273 272 270
254 255 256 257 260 261 262 262 263 266 267 268 270 270 271 271 272 273 273 273 274 276 277 278 278 280 282 283 284 284 285 286 286 285 284 283 280 278 277 275 273 274 273 270
252 254 256 257 260 263 262 263 263 265 268 271 271 270 270 271 272 273 272 273 274 276 277 277 277 279 281 283 284 284 285 285 285 284 283 283 282 280 279 277 276 275 274 271
255 255 258 259 259 261 263 265 264 263 265 268 270 272 271 271 270 271 271 272 272 274 275 276 277 278 280 282 283 284 284 284 284 283 281 282 282 281 280 278 277 276 275 273
259 257 258 260 261 262 264 265 266 265 265 266 269 271 272 272 272 271 270 271 272 272 273 275 277 279 280 281 281 281 282 284 284 283 282 283 282 282 281 280 278 276 276 275
261 261 261 261 261 263 265 266 266 266 266 267 269 272 273 272 272 271 271 270 271 272 273 275 276 278 279 280 280 281 283 284 284 284 284 283 282 281 280 280 279 276 275 275
Height
5820 5822 5823 5825 5826 5828 5829 5830 5831 5832 5832 5833 5833 5834 5834 5834 5835 5835 5835 5835 5835 5835 5835 5835 5835 5835 5835 5835 5835 5835 5834 5834 5834 5834 5835 5835 5835 5835 5836 5836 5836 5836 5836 5836
5819 5820 5822 5823 5824 5825 5827 5828 5829 5830 5830 5831 5831 5831 5831 5832 5832 5833 5833 5833 5833 5833 5833 5833 5833 5833 5833 5833 5833 5832 5832 5832 5832 5832 5833 5833 5833 5833 5833 5834 5833 5833 5833 5834
5816 5819 5819 5821 5822 5823 5824 5826 5827 5827 5828 5829 5829 5829 5829 5830 5830 5830 5830 5830 5830 5830 5830 5830 5831 5830 5830 5830 5830 5830 5830 5830 5830 5830 5830 5831 5831 5831 5831 5831 5831 5831 5831 5831
5813 5815 5816 5818 5819 5821 5822 5823 5824 5825 5825 5826 5827 5827 5827 5826 5827 5827 5828 5827 5827 5827 5827 5828 5828 5828 5828 5827 5827 5827 5827 5827 5827 5828 5828 5828 5828 5828 5828 5828 5828 5828 5828 5828
5810 5812 5813 5815 5817 5818 5819 5820 5821 5822 5822 5823 5823 5824 5824 5824 5824 5824 5824 5824 5824 5824 5824 5824 5824 5824 5824 5824 5824 5824 5824 5824 5824 5825 5825 5825 5825 5825 5826 5825 5825 5825 5825 5825
5807 5809 5810 5812 5814 5815 5816 5818 5818 5819 5819 5820 5821 5821 5821 5821 5821 5821 5821 5821 5821 5820 5820 5820 5820 5821 5821 5821 5821 5821 5821 5821 5821 5821 5821 5822 5822 5822 5822 5822 5822 5822 5822 5821
5804 5805 5807 5808 5810 5811 5813 5814 5815 5815 5816 5817 5818 5818 5819 5818 5819 5818 5818 5818 5817 5817 5816 5816 5816 5817 5817 5817 5817 5817 5817 5817 5817 5817 5817 5818 5818 5818 5819 5819 5819 5819 5818 5818
5800 5802 5803 5804 5806 5808 5809 5810 5812 5813 5813 5814 5815 5814 5816 5815 5815 5815 5815 5814 5813 5813 5812 5812 5812 5812 5812 5812 5812 5812 5812 5812 5812 5812 5812 5813 5813 5814 5814 5815 5815 5815 5815 5814
5796 5798 5800 5801 5802 5804 5805 5806 5808 5809 5810 5811 5811 5812 5812 5811 5811 5811 5811 5810 5809 5808 5808 5808 5808 5807 5807 5807 5807 5807 5807 5807 5807 5807 5807 5808 5808 5809 5809 5810 5810 5810 5810 5810
5793 5794 5796 5797 5798 5800 5801 5803 5804 5805 5806 5807 5808 5807 5807 5806 5807 5807 5807 5806 5805 5804 5803 5803 5803 5802 5802 5802 5802 5802 5802 5802 5802 5802 5802 5802 5803 5803 5804 5805 5805 5806 5806 5805
5788 5790 5792 5792 5794 5795 5797 5799 5799 5801 5802 5803 5803 5805 5803 5802 5802 5802 5802 5801 5801 5800 5799 5798 5797 5797 5797 5796 5796 5796 5796 5796 5796 5796 5797 5797 5797 5798 5798 5799 5800 5800 5800 5800
5783 5785 5786 5788 5789 5791 5792 5794 5795 5797 5798 5798 5799 5801 5798 5798 5798 5797 5797 5796 5795 5795 5793 5792 5792 5791 5791 5791 5791 5791 5791 5791 5791 5791 5791 5791 5791 5792 5792 5793 5794 5794 5795 5795
5778 5780 5782 5783 5786 5786 5787 5789 5790 5792 5793 5793 5794 5796 5793 5793 5793 5792 5791 5791 5790 5789 5788 5787 5786 5786 5786 5785 5785 5785 5785 5785 5785 5785 5785 5785 5786 5786 5787 5787 5788 5788 5789 5789
5773 5775 5777 5779 5779 5780 5782 5783 5785 5786 5787 5788 5789 5789 5788 5787 5787 5787 5786 5786 5785 5784 5783 5782 5781 5781 5780 5780 5780 5779 5779 5779 5779 5778 5779 5779 5779 5780 5780 5780 5781 5781 5782 5782
5768 5770 5771 5773 5775 5776 5777 5778 5780 5781 5782 5783 5784 5782 5782 5782 5781 5781 5781 5780 5779 5778 5777 5776 5776 5775 5775 5774 5774 5774 5773 5773 5773 5772 5773 5773 5772 5773 5773 5773 5774 5775 5775 5775
5763 5765 5766 5768 5769 5771 5772 5773 5775 5776 5776 5777 5777 5777 5777 5776 5776 5776 5775 5774 5774 5773 5772 5771 5770 5770 5770 5769 5769 5768 5768 5767 5767 5766 5766 5766 5766 5766 5766 5766 5767 5767 5768 5768
5758 5759 5761 5762 5764 5765 5767 5768 5768 5769 5769 5770 5771 5772 5771 5770 5770 5770 5769 5769 5768 5767 5766 5766 5765 5764 5764 5763 5763 5762 5762 5761 5760 5760 5759 5759 5759 5759 5759 5759 5759 5760 5761 5761
5753 5754 5755 5757 5759 5759 5762 5761 5762 5763 5764 5764 5765 5765 5764 5764 5764 5764 5763 5763 5762 5761 5760 5760 5759 5758 5758 5757 5757 5756 5755 5754 5754 5753 5753 5752 5752 5751 5752 5752 5752 5753 5753 5754
5748 5749 5750 5752 5752 5753 5755 5756 5756 5757 5757 5758 5758 5758 5758 5758 5758 5758 5757 5757 5756 5755 5755 5754 5753 5753 5752 5752 5751 5750 5749 5748 5747 5747 5746 5746 5745 5745 5745 5745 5745 5745 5746 5746
5742 5743 5745 5746 5747 5747 5750 5750 5750 5751 5751 5752 5752 5752 5752 5751 5752 5752 5751 5750 5750 5749 5748 5748 5747 5747 5746 5745 5744 5743 5743 5741 5741 5740 5739 5739 5738 5738 5738 5738 5738 5738 5738 5738
5737 5738 5739 5740 5740 5741 5743 5744 5744 5746 5746 5746 5745 5746 5745 5745 5745 5745 5745 5744 5743 5743 5742 5742 5741 5740 5740 5739 5738 5737 5736 5735 5734 5733 5732 5731 5731 5731 5730 5730 5730 5730 5730 5730
5731 5732 5733 5734 5735 5738 5737 5737 5739 5739 5738 5738 5739 5739 5739 5738 5738 5738 5737 5737 5737 5736 5736 5735 5734 5734 5733 5732 5731 5730 5729 5728 5727 5726 5725 5724 5723 5723 5722 5722 5722 5721 5721 5721
5725 5727 5727 5729 5730 5730 5730 5731 5731 5731 5732 5732 5732 5732 5731 5731 5731 5730 5730 5730 5730 5729 5729 5728 5728 5727 5726 5725 5724 5724 5723 5721 5719 5718 5717 5716 5716 5715 5714 5714 5713 5713 5712 5712
5719 5720 5720 5721 5722 5722 5723 5724 5724 5724 5725 5725 5725 5724 5724 5723 5723 5723 5722 5722 5722 5722 5721 5721 5720 5720 5719 5718 5717 5716 5715 5713 5712 5711 5710 5709 5708 5707 5706 5705 5704 5704 5703 5703
5713 5714 5714 5714 5716 5716 5716 5716 5717 5717 5717 5717 5717 5717 5716 5716 5716 5715 5715 5714 5714 5714 5713 5713 5713 5712 5711 5710 5709 5707 5706 5705 5704 5702 5701 5700 5699 5698 5696 5695 5694 5694 5694 5693
5707 5707 5708 5708 5709 5709 5709 5709 5709 5709 5709 5709 5709 5709 5708 5708 5708 5707 5707 5706 5706 5705 5705 5705 5704 5703 5702 5701 5700 5699 5698 5696 5695 5693 5692 5691 5689 5688 5687 5686 5685 5684 5684 5684